Delaware, OH

6:39 PM EDT on March 27, 2017 (GMT -0400)
Delaware Municipal

Weather History for KDLZ - December, 2013

Change the Weather History Date:

Tuesday, December 17, 2013

  Actual Average Record
Temperature  
Mean Temperature 26 °F -  
Max Temperature 30 °F 36 °F 63 °F (1984)
Min Temperature 23 °F 20 °F -15 °F (1989)
Degree Days  
Heating Degree Days 38    
Moisture  
Dew Point 23 °F    
Average Humidity 85    
Maximum Humidity 100    
Minimum Humidity 74    
Precipitation  
Precipitation 0.00 in - - ()
Sea Level Pressure  
Sea Level Pressure 30.01 in    
Wind  
Wind Speed 8 mph (WSW)    
Max Wind Speed 18 mph    
Max Gust Speed 23 mph    
Visibility 6 miles    
Events Snow    
Averages and records for this station are not official NWS values.
T = Trace of Precipitation, MM = Missing Value Source: NWS Daily Summary

Daily Weather History Graph

Daily Weather History Graph

Search for Another Location

Airport or City:

Trip Planner

Search our weather history database for the weather conditions in past years. The results will help you decide how hot, cold, wet, or windy it might be!

Date:

Astronomy

Dec. 17, 2013 Rise Set
Actual Time 7:49 AM EST 5:07 PM EST
Civil Twilight 7:18 AM EST 5:38 PM EST
Nautical Twilight 6:44 AM EST 6:12 PM EST
Astronomical Twilight 6:11 AM EST 6:46 PM EST
Moon 5:47 PM EST (12/17) 7:44 AM EST (12/17)
Length of Visible Light 10h 19m
Length of Day
9h 18m
Full, 100% of the Moon is Illuminated
Dec 17
Full
Dec 25
Last Quarter
Jan 1
New
Jan 7
First Quarter
Jan 15
Full

Hourly Weather History & Observations

Time (EST) Temp. Windchill Dew Point Humidity Pressure Visibility Wind Dir Wind Speed Gust Speed Precip Events Conditions
12:18 AM 28.4 °F 23.3 °F 26.6 °F 93% 29.96 in 2.5 mi South 4.6 mph - N/A   Overcast
12:38 AM 28.4 °F 23.3 °F 26.6 °F 93% 29.96 in 2.5 mi South 4.6 mph - N/A   Overcast
12:59 AM 28.4 °F 22.2 °F 28.4 °F 100% 29.95 in 3.0 mi South 5.8 mph - N/A   Overcast
1:18 AM 30.2 °F 21.9 °F 28.4 °F 93% 29.94 in 4.0 mi SSW 9.2 mph - N/A   Overcast
1:38 AM 30.2 °F 22.6 °F 28.4 °F 93% 29.94 in 4.0 mi SSW 8.1 mph - N/A   Overcast
1:59 AM 30.2 °F 22.6 °F 28.4 °F 93% 29.94 in 5.0 mi SW 8.1 mph - N/A   Overcast
2:18 AM 30.2 °F 22.6 °F 28.4 °F 93% 29.94 in 5.0 mi SSW 8.1 mph - N/A   Overcast
2:38 AM 30.2 °F 24.3 °F 28.4 °F 93% 29.95 in 5.0 mi WSW 5.8 mph - N/A   Overcast
2:59 AM 30.2 °F 25.4 °F 28.4 °F 93% 29.96 in 4.0 mi WSW 4.6 mph - N/A   Overcast
3:18 AM 30.2 °F 21.9 °F 28.4 °F 93% 29.96 in 4.0 mi WNW 9.2 mph - N/A   Overcast
3:38 AM 30.2 °F 18.1 °F 28.4 °F 93% 29.97 in 2.5 mi WNW 18.4 mph 23.0 mph N/A   Overcast
3:59 AM 28.4 °F 19.7 °F 26.6 °F 93% 29.98 in 4.0 mi WNW 9.2 mph 17.3 mph N/A   Overcast
4:18 AM 28.4 °F 19.7 °F 26.6 °F 93% 29.97 in 5.0 mi NW 9.2 mph - N/A   Overcast
4:38 AM 26.6 °F 18.2 °F 24.8 °F 93% 29.97 in 4.0 mi WNW 8.1 mph 16.1 mph N/A   Overcast
4:59 AM 26.6 °F 20.0 °F 24.8 °F 93% 29.96 in 4.0 mi West 5.8 mph - N/A   Overcast
5:18 AM 26.6 °F 19.1 °F 24.8 °F 93% 29.98 in 4.0 mi WNW 6.9 mph - N/A   Overcast
5:38 AM 26.6 °F 18.2 °F 23.0 °F 86% 29.98 in 4.0 mi WNW 8.1 mph - N/A   Overcast
5:59 AM 26.6 °F 21.2 °F 23.0 °F 86% 29.96 in 5.0 mi West 4.6 mph - N/A   Overcast
6:18 AM 26.6 °F 16.2 °F 23.0 °F 86% 29.98 in 7.0 mi West 11.5 mph - N/A   Overcast
6:38 AM 24.8 °F 11.5 °F 21.2 °F 86% 30.02 in 10.0 mi WNW 17.3 mph 23.0 mph N/A   Overcast
6:59 AM 23.0 °F 11.7 °F 21.2 °F 93% 30.02 in 10.0 mi WNW 11.5 mph - N/A   Overcast
7:18 AM 23.0 °F 13.1 °F 19.4 °F 86% 30.03 in 10.0 mi WNW 9.2 mph - N/A   Overcast
7:38 AM 23.0 °F 18.4 °F 19.4 °F 86% 30.02 in 10.0 mi NW 3.5 mph - N/A   Overcast
7:59 AM 23.0 °F 17.0 °F 19.4 °F 86% 30.02 in 10.0 mi NW 4.6 mph - N/A   Overcast
8:18 AM 23.0 °F - 19.4 °F 86% 30.02 in 7.0 mi Calm Calm - N/A   Overcast
8:38 AM 23.0 °F 13.9 °F 19.4 °F 86% 30.04 in 5.0 mi NW 8.1 mph - N/A   Overcast
8:59 AM 23.0 °F 15.8 °F 19.4 °F 86% 30.03 in 5.0 mi NW 5.8 mph - N/A   Overcast
9:18 AM 23.0 °F 13.9 °F 19.4 °F 86% 30.04 in 5.0 mi NW 8.1 mph - N/A   Overcast
9:38 AM 23.0 °F 13.1 °F 19.4 °F 86% 30.06 in 4.0 mi NW 9.2 mph - N/A   Overcast
9:59 AM 23.0 °F 17.0 °F 19.4 °F 86% 30.06 in 4.0 mi WNW 4.6 mph - N/A   Overcast
10:18 AM 23.0 °F 17.0 °F 19.4 °F 86% 30.06 in 5.0 mi WSW 4.6 mph - N/A   Overcast
10:38 AM 23.0 °F 17.0 °F 19.4 °F 86% 30.07 in 5.0 mi West 4.6 mph - N/A   Overcast
10:59 AM 24.8 °F 20.5 °F 19.4 °F 80% 30.06 in 5.0 mi WNW 3.5 mph - N/A   Haze
11:18 AM 24.8 °F - 19.4 °F 80% 30.05 in 5.0 mi Calm Calm - N/A   Haze
11:38 AM 24.8 °F 19.1 °F 21.2 °F 86% 30.04 in 4.0 mi SSW 4.6 mph - N/A   Overcast
11:59 AM 26.6 °F 19.1 °F 21.2 °F 80% 30.03 in 5.0 mi SW 6.9 mph - N/A   Haze
12:18 PM 26.6 °F 19.1 °F 21.2 °F 80% 30.01 in 5.0 mi SW 6.9 mph - N/A   Haze
12:38 PM 26.6 °F 17.5 °F 21.2 °F 80% 30.00 in 5.0 mi SSW 9.2 mph - N/A   Haze
12:59 PM 26.6 °F 17.5 °F 21.2 °F 80% 29.99 in 5.0 mi SSW 9.2 mph - N/A   Haze
1:18 PM 26.6 °F 17.5 °F 21.2 °F 80% 29.99 in 5.0 mi SW 9.2 mph - N/A   Haze
1:38 PM 26.6 °F 18.2 °F 21.2 °F 80% 29.98 in 5.0 mi SSW 8.1 mph - N/A   Haze
1:59 PM 26.6 °F 16.8 °F 21.2 °F 80% 29.96 in 5.0 mi SSW 10.4 mph - N/A   Haze
2:18 PM 26.6 °F 16.2 °F 21.2 °F 80% 29.96 in 7.0 mi SW 11.5 mph - N/A   Overcast
2:38 PM 26.6 °F 16.8 °F 21.2 °F 80% 29.96 in 10.0 mi SSW 10.4 mph - N/A   Overcast
2:59 PM 26.6 °F 16.2 °F 21.2 °F 80% 29.99 in 10.0 mi West 11.5 mph - N/A   Overcast
3:18 PM 26.6 °F 16.8 °F 21.2 °F 80% 29.99 in 7.0 mi WSW 10.4 mph - N/A   Overcast
3:38 PM 26.6 °F 17.5 °F 21.2 °F 80% 29.99 in 7.0 mi SW 9.2 mph - N/A   Overcast
3:59 PM 26.6 °F 17.5 °F 21.2 °F 80% 29.97 in 7.0 mi SW 9.2 mph - N/A   Overcast
4:18 PM 26.6 °F 18.2 °F 21.2 °F 80% 29.98 in 10.0 mi SW 8.1 mph - N/A   Overcast
4:38 PM 26.6 °F 19.1 °F 21.2 °F 80% 29.98 in 10.0 mi SW 6.9 mph - N/A   Overcast
4:59 PM 26.6 °F 19.1 °F 21.2 °F 80% 29.98 in 7.0 mi SSW 6.9 mph - N/A   Overcast
5:18 PM 26.6 °F 18.2 °F 21.2 °F 80% 29.99 in 10.0 mi SW 8.1 mph - N/A   Overcast
5:38 PM 26.6 °F 19.1 °F 21.2 °F 80% 29.99 in 5.0 mi SW 6.9 mph - N/A Snow Light Snow
5:59 PM 26.6 °F 19.1 °F 21.2 °F 80% 29.99 in 7.0 mi SW 6.9 mph - N/A Snow Light Snow
6:18 PM 26.6 °F 19.1 °F 21.2 °F 80% 30.00 in 3.0 mi WSW 6.9 mph - N/A Snow Light Snow
6:38 PM 26.6 °F 19.1 °F 23.0 °F 86% 30.01 in 5.0 mi WSW 6.9 mph - N/A Snow Light Snow
6:59 PM 26.6 °F 19.1 °F 23.0 °F 86% 30.02 in 5.0 mi WSW 6.9 mph - N/A Snow Light Snow
7:18 PM 26.6 °F 19.1 °F 23.0 °F 86% 30.02 in 7.0 mi WSW 6.9 mph - N/A   Overcast
7:38 PM 26.6 °F 15.7 °F 23.0 °F 86% 30.03 in 10.0 mi West 12.7 mph 16.1 mph N/A   Overcast
7:59 PM 26.6 °F 15.7 °F 23.0 °F 86% 30.04 in 7.0 mi West 12.7 mph 20.7 mph N/A   Overcast
8:18 PM 26.6 °F 15.7 °F 23.0 °F 86% 30.05 in 7.0 mi West 12.7 mph - N/A   Overcast
8:38 PM 26.6 °F 16.2 °F 23.0 °F 86% 30.06 in 7.0 mi WNW 11.5 mph - N/A   Overcast
8:59 PM 26.6 °F 14.7 °F 23.0 °F 86% 30.07 in 7.0 mi WNW 15.0 mph 19.6 mph N/A   Overcast
9:18 PM 26.6 °F 15.7 °F 21.2 °F 80% 30.07 in 7.0 mi WNW 12.7 mph - N/A   Overcast
9:38 PM 26.6 °F 15.7 °F 21.2 °F 80% 30.08 in 7.0 mi West 12.7 mph 18.4 mph N/A   Overcast
9:59 PM 26.6 °F 16.2 °F 23.0 °F 86% 30.08 in 7.0 mi West 11.5 mph 17.3 mph N/A   Overcast
10:18 PM 26.6 °F 17.5 °F 23.0 °F 86% 30.09 in 7.0 mi West 9.2 mph - N/A   Overcast
10:38 PM 26.6 °F 21.2 °F 23.0 °F 86% 30.09 in 7.0 mi West 4.6 mph - N/A   Overcast
10:59 PM 26.6 °F 21.2 °F 21.2 °F 80% 30.09 in 7.0 mi West 4.6 mph - N/A   Overcast
11:18 PM 28.4 °F 20.4 °F 21.2 °F 74% 30.10 in 10.0 mi West 8.1 mph - N/A   Overcast
11:38 PM 28.4 °F 23.3 °F 21.2 °F 74% 30.09 in 10.0 mi WSW 4.6 mph - N/A   Overcast
11:58 PM 26.6 °F 21.2 °F 21.2 °F 80% 30.09 in 10.0 mi SW 4.6 mph - N/A   Overcast